| time (UTC) | temp C | wind direction | speed KPH | gust KPH | rain 1hr cm | rain 24hr cm | rain mn cm | humidity % | barometer mb |
| 20260503021513 | 3 | 95 | 0.0 | 0.0 | 0.00 | 0.03 | 0.03 | 73 | 1017.7 |
| 20260503020010 | 4 | 95 | 0.0 | 0.0 | 0.00 | 0.03 | 0.03 | 71 | 1017.6 |
| 20260503014513 | 5 | 95 | 0.0 | 0.0 | 0.00 | 0.03 | 0.03 | 67 | 1017.5 |
| 20260503013017 | 5 | 95 | 0.0 | 0.0 | 0.00 | 0.03 | 0.03 | 65 | 1017.4 |
| 20260503011503 | 6 | 95 | 0.0 | 0.0 | 0.00 | 0.03 | 0.03 | 62 | 1017.4 |
| 20260503010006 | 6 | 95 | 0.0 | 0.0 | 0.00 | 0.03 | 0.03 | 65 | 1017.3 |
| 20260503004512 | 6 | 95 | 0.0 | 3.2 | 0.00 | 0.03 | 0.03 | 60 | 1017.3 |
| 20260503003015 | 6 | 95 | 0.0 | 0.0 | 0.00 | 0.03 | 0.03 | 65 | 1017.3 |
| 20260503001523 | 6 | 95 | 0.0 | 0.0 | 0.00 | 0.03 | 0.03 | 58 | 1017.1 |
| 20260503000004 | 7 | 95 | 0.0 | 0.0 | 0.00 | 0.03 | 0.03 | 57 | 1017.0 |
| 20260502234528 | 7 | 99 | 0.0 | 3.2 | 0.00 | 0.03 | 0.03 | 57 | 1017.0 |
| 20260502233026 | 7 | 273 | 0.0 | 1.6 | 0.00 | 0.03 | 0.03 | 55 | 1016.9 |
| 20260502231520 | 7 | 273 | 0.0 | 3.2 | 0.00 | 0.03 | 0.03 | 55 | 1016.9 |
| 20260502230029 | 7 | 309 | 0.0 | 1.6 | 0.00 | 0.03 | 0.03 | 56 | 1016.9 |
| 20260502224507 | 7 | 306 | 0.0 | 3.2 | 0.00 | 0.03 | 0.03 | 53 | 1017.0 |
| 20260502223014 | 7 | 298 | 1.6 | 3.2 | 0.00 | 0.03 | 0.03 | 53 | 1016.8 |
| 20260502221519 | 7 | 304 | 1.6 | 3.2 | 0.00 | 0.03 | 0.03 | 50 | 1016.9 |
| 20260502220027 | 7 | 298 | 1.6 | 3.2 | 0.00 | 0.03 | 0.03 | 52 | 1016.8 |
| 20260502214526 | 7 | 304 | 1.6 | 4.8 | 0.00 | 0.03 | 0.03 | 53 | 1016.8 |
| 20260502213012 | 8 | 303 | 0.0 | 4.8 | 0.00 | 0.03 | 0.03 | 54 | 1016.7 |
| 20260502211517 | 8 | 312 | 1.6 | 3.2 | 0.00 | 0.03 | 0.03 | 53 | 1016.7 |
| 20260502210023 | 8 | 304 | 1.6 | 6.4 | 0.00 | 0.03 | 0.03 | 51 | 1016.7 |
| 20260502204529 | 8 | 173 | 0.0 | 4.8 | 0.00 | 0.03 | 0.03 | 47 | 1016.6 |
| 20260502203010 | 9 | 304 | 1.6 | 6.4 | 0.00 | 0.03 | 0.03 | 50 | 1016.6 |
| 20260502201503 | 8 | 302 | 0.0 | 3.2 | 0.00 | 0.03 | 0.03 | 53 | 1016.7 |
| 20260502200003 | 8 | 139 | 4.8 | 201.2 | 0.00 | 0.03 | 0.03 | 54 | 1016.9 |
| 20260502194504 | 8 | 298 | 0.0 | 4.8 | 0.00 | 0.03 | 0.03 | 54 | 1017.0 |
| 20260502193007 | 8 | 271 | 1.6 | 6.4 | 0.00 | 0.03 | 0.03 | 49 | 1017.0 |
| 20260502191511 | 8 | 310 | 1.6 | 9.7 | 0.00 | 0.03 | 0.03 | 49 | 1017.1 |
| 20260502190002 | 8 | 295 | 1.6 | 14.5 | 0.00 | 0.03 | 0.03 | 50 | 1017.2 |
| 20260502184508 | 8 | 304 | 0.0 | 4.8 | 0.00 | 0.03 | 0.03 | 53 | 1017.3 |
| 20260502183016 | 8 | 301 | 0.0 | 6.4 | 0.00 | 0.03 | 0.03 | 54 | 1017.2 |
| 20260502181516 | 8 | 308 | 1.6 | 4.8 | 0.00 | 0.03 | 0.03 | 54 | 1017.3 |
| 20260502163010 | 7 | 297 | 1.6 | 3.2 | 0.00 | 0.03 | 0.03 | 60 | 1017.6 |
| 20260502161506 | 8 | 296 | 1.6 | 6.4 | 0.00 | 0.03 | 0.03 | 59 | 1017.7 |
| 20260502151530 | 7 | 310 | 1.6 | 6.4 | 0.00 | 0.03 | 0.03 | 60 | 1017.6 |
| 20260502123022 | 3 | 136 | 0.0 | 3.2 | 0.00 | 0.00 | 0.00 | 77 | 1017.3 |
| 20260502121523 | 2 | 311 | 0.0 | 3.2 | 0.00 | 0.00 | 0.00 | 78 | 1017.0 |
| 20260502114510 | 1 | 306 | 0.0 | 3.2 | 0.00 | 0.00 | 0.00 | 80 | 1016.8 |
| 20260502113024 | 1 | 311 | 0.0 | 3.2 | 0.00 | 0.00 | 0.00 | 82 | 1016.8 |
| 20260502111521 | 0 | 317 | 0.0 | 3.2 | 0.00 | 0.00 | 0.00 | 84 | 1016.7 |
| 20260502110026 | 0 | 321 | 0.0 | 0.0 | 0.00 | 0.00 | 0.00 | 87 | 1016.6 |
| 20260502104525 | 0 | 321 | 0.0 | 0.0 | 0.00 | 0.00 | 0.00 | 86 | 1016.7 |
| 20260502103013 | 0 | 321 | 0.0 | 0.0 | 0.00 | 0.00 | 0.00 | 85 | 1016.6 |
| 20260502101529 | 1 | 321 | 0.0 | 3.2 | 0.00 | 0.00 | 0.00 | 84 | 1016.6 |
| 20260502091513 | 0 | 321 | 0.0 | 3.2 | 0.00 | 0.00 | 0.00 | 88 | 1016.6 |
| 20260502070040 | 1 | 87 | 0.0 | 0.0 | 0.00 | 0.00 | 0.00 | 89 | 1016.4 |
| 20260502064504 | 1 | 87 | 0.0 | 0.0 | 0.00 | 0.00 | 0.00 | 89 | 1016.5 |
| 20260502063013 | 1 | 87 | 0.0 | 0.0 | 0.00 | 0.00 | 0.00 | 89 | 1016.6 |
| 20260502061507 | 2 | 87 | 0.0 | 0.0 | 0.00 | 0.00 | 0.00 | 89 | 1016.5 |
| 20260502060012 | 2 | 87 | 0.0 | 0.0 | 0.00 | 0.00 | 0.00 | 90 | 1016.6 |
| 20260502054517 | 2 | 86 | 0.0 | 0.0 | 0.00 | 0.00 | 0.00 | 90 | 1016.7 |
| 20260502053004 | 2 | 87 | 0.0 | 0.0 | 0.00 | 0.00 | 0.00 | 91 | 1016.9 |
| 20260502051508 | 2 | 86 | 0.0 | 0.0 | 0.00 | 0.00 | 0.00 | 91 | 1016.8 |
| 20260502050011 | 2 | 87 | 0.0 | 0.0 | 0.00 | 0.00 | 0.00 | 90 | 1016.9 |
| 20260502044516 | 2 | 87 | 0.0 | 0.0 | 0.00 | 0.00 | 0.00 | 90 | 1016.9 |
| 20260502043022 | 2 | 86 | 0.0 | 0.0 | 0.00 | 0.00 | 0.00 | 90 | 1016.8 |
| 20260502041503 | 2 | 87 | 0.0 | 0.0 | 0.00 | 0.00 | 0.00 | 90 | 1016.9 |
| 20260502040009 | 2 | 87 | 0.0 | 0.0 | 0.00 | 0.00 | 0.00 | 89 | 1016.8 |
| 20260502034516 | 3 | 87 | 0.0 | 0.0 | 0.00 | 0.00 | 0.00 | 89 | 1016.7 |
| 20260502033022 | 3 | 87 | 0.0 | 0.0 | 0.00 | 0.00 | 0.00 | 88 | 1016.8 |
| 20260502031524 | 3 | 87 | 0.0 | 0.0 | 0.00 | 0.00 | 0.00 | 88 | 1016.8 |
| 20260502030007 | 3 | 87 | 0.0 | 0.0 | 0.00 | 0.00 | 0.00 | 88 | 1016.7 |
| 20260502024510 | 3 | 87 | 0.0 | 0.0 | 0.00 | 0.00 | 0.00 | 88 | 1016.7 |
| 20260502023018 | 3 | 86 | 0.0 | 0.0 | 0.00 | 0.00 | 0.00 | 87 | 1016.7 |